TimeCDT,TemperatureF,Dew PointF,Humidity,Sea Level PressureIn,VisibilityMPH,Wind Direction,Wind SpeedMPH,Gust SpeedMPH,PrecipitationIn,Events,Conditions,WindDirDegrees,DateUTC
12:15 AM,50.0,24.8,37,30.27,10.0,ENE,13.8,19.6,N/A,,Overcast,70,2012-10-06 05:15:00
12:35 AM,50.0,24.8,37,30.27,10.0,ENE,11.5,17.3,N/A,,Overcast,70,2012-10-06 05:35:00
12:55 AM,48.2,30.2,50,30.28,7.0,ENE,15.0,19.6,N/A,,Overcast,70,2012-10-06 05:55:00
1:15 AM,46.4,32.0,57,30.28,10.0,ENE,9.2,18.4,N/A,,Overcast,60,2012-10-06 06:15:00
1:35 AM,46.4,32.0,57,30.28,10.0,ENE,11.5,17.3,N/A,,Overcast,70,2012-10-06 06:35:00
1:55 AM,46.4,32.0,57,30.27,10.0,ENE,10.4,16.1,N/A,,Overcast,60,2012-10-06 06:55:00
2:15 AM,46.4,32.0,57,30.27,10.0,ENE,12.7,17.3,N/A,,Overcast,70,2012-10-06 07:15:00
2:35 AM,46.4,32.0,57,30.28,5.0,ENE,8.1,-,N/A,,Haze,70,2012-10-06 07:35:00
2:55 AM,46.4,32.0,57,30.28,10.0,ENE,10.4,-,N/A,,Overcast,70,2012-10-06 07:55:00
3:15 AM,46.4,32.0,57,30.27,10.0,ENE,11.5,-,N/A,,Overcast,60,2012-10-06 08:15:00
3:35 AM,44.6,32.0,61,30.28,10.0,ENE,12.7,16.1,N/A,,Overcast,60,2012-10-06 08:35:00
3:55 AM,44.6,32.0,61,30.27,10.0,East,11.5,-,N/A,,Overcast,80,2012-10-06 08:55:00
4:15 AM,44.6,32.0,61,30.26,10.0,ENE,6.9,-,N/A,,Overcast,60,2012-10-06 09:15:00
4:35 AM,44.6,32.0,61,30.26,10.0,NE,10.4,-,N/A,,Overcast,40,2012-10-06 09:35:00
4:55 AM,44.6,32.0,61,30.26,10.0,NE,8.1,-,N/A,,Overcast,50,2012-10-06 09:55:00
5:15 AM,44.6,32.0,61,30.26,10.0,ENE,9.2,-,N/A,,Overcast,60,2012-10-06 10:15:00
5:35 AM,44.6,32.0,61,30.27,10.0,ENE,9.2,-,N/A,,Overcast,70,2012-10-06 10:35:00
5:55 AM,44.6,32.0,61,30.27,10.0,ENE,9.2,-,N/A,,Overcast,60,2012-10-06 10:55:00
6:15 AM,44.6,32.0,61,30.27,10.0,East,10.4,-,N/A,,Overcast,90,2012-10-06 11:15:00
6:35 AM,44.6,32.0,61,30.27,10.0,ENE,10.4,-,N/A,,Overcast,60,2012-10-06 11:35:00
6:55 AM,44.6,32.0,61,30.27,10.0,ENE,8.1,-,N/A,,Overcast,60,2012-10-06 11:55:00
7:15 AM,44.6,32.0,61,30.27,10.0,ENE,10.4,-,N/A,,Overcast,70,2012-10-06 12:15:00
7:35 AM,44.6,32.0,61,30.27,10.0,ENE,8.1,-,N/A,,Overcast,60,2012-10-06 12:35:00
7:55 AM,44.6,32.0,61,30.28,10.0,ENE,8.1,-,N/A,,Overcast,70,2012-10-06 12:55:00
8:15 AM,44.6,32.0,61,30.29,10.0,East,6.9,-,N/A,,Overcast,80,2012-10-06 13:15:00
8:35 AM,44.6,32.0,61,30.29,10.0,ENE,4.6,-,N/A,,Overcast,60,2012-10-06 13:35:00
8:55 AM,44.6,32.0,61,30.31,10.0,ENE,6.9,-,N/A,,Overcast,70,2012-10-06 13:55:00
9:15 AM,44.6,32.0,61,30.31,10.0,NE,6.9,-,N/A,,Overcast,50,2012-10-06 14:15:00
9:35 AM,44.6,32.0,61,30.30,10.0,ENE,5.8,-,N/A,,Overcast,70,2012-10-06 14:35:00
9:55 AM,44.6,32.0,61,30.30,10.0,East,8.1,-,N/A,,Overcast,80,2012-10-06 14:55:00
10:15 AM,44.6,32.0,61,30.30,10.0,East,8.1,-,N/A,,Overcast,90,2012-10-06 15:15:00
10:35 AM,44.6,32.0,61,30.29,10.0,East,9.2,-,N/A,,Overcast,80,2012-10-06 15:35:00
10:55 AM,44.6,30.2,57,30.31,10.0,East,8.1,-,N/A,,Overcast,80,2012-10-06 15:55:00
11:15 AM,44.6,30.2,57,30.30,10.0,East,10.4,-,N/A,,Overcast,80,2012-10-06 16:15:00
11:35 AM,44.6,30.2,57,30.31,10.0,East,6.9,-,N/A,,Overcast,90,2012-10-06 16:35:00
11:55 AM,44.6,30.2,57,30.30,10.0,ENE,10.4,-,N/A,,Overcast,60,2012-10-06 16:55:00
12:15 PM,44.6,30.2,57,30.30,10.0,East,6.9,-,N/A,,Overcast,90,2012-10-06 17:15:00
12:35 PM,44.6,32.0,61,30.30,10.0,NE,9.2,-,N/A,,Overcast,50,2012-10-06 17:35:00
12:55 PM,44.6,32.0,61,30.30,10.0,East,10.4,-,N/A,,Overcast,80,2012-10-06 17:55:00
1:15 PM,44.6,32.0,61,30.29,10.0,ENE,8.1,-,N/A,,Overcast,70,2012-10-06 18:15:00
1:35 PM,46.4,32.0,57,30.29,10.0,ENE,9.2,-,N/A,,Overcast,70,2012-10-06 18:35:00
1:55 PM,46.4,32.0,57,30.28,10.0,ENE,10.4,-,N/A,,Overcast,70,2012-10-06 18:55:00
2:15 PM,46.4,32.0,57,30.27,10.0,ENE,10.4,-,N/A,,Overcast,70,2012-10-06 19:15:00
2:35 PM,44.6,30.2,57,30.26,10.0,ENE,9.2,16.1,N/A,,Overcast,60,2012-10-06 19:35:00
2:55 PM,46.4,30.2,53,30.26,10.0,East,9.2,-,N/A,,Overcast,80,2012-10-06 19:55:00
3:15 PM,46.4,30.2,53,30.26,10.0,ENE,10.4,-,N/A,,Overcast,70,2012-10-06 20:15:00
3:35 PM,46.4,30.2,53,30.26,10.0,ENE,9.2,-,N/A,,Overcast,70,2012-10-06 20:35:00
3:55 PM,44.6,30.2,57,30.26,10.0,ENE,9.2,16.1,N/A,,Overcast,60,2012-10-06 20:55:00
4:15 PM,44.6,30.2,57,30.26,10.0,NE,10.4,-,N/A,,Overcast,50,2012-10-06 21:15:00
4:35 PM,46.4,30.2,53,30.26,10.0,ENE,6.9,-,N/A,,Overcast,70,2012-10-06 21:35:00
4:55 PM,46.4,32.0,57,30.26,10.0,ENE,10.4,-,N/A,,Overcast,70,2012-10-06 21:55:00
5:15 PM,44.6,30.2,57,30.26,10.0,ENE,9.2,-,N/A,,Overcast,60,2012-10-06 22:15:00
5:35 PM,44.6,30.2,57,30.26,10.0,ENE,9.2,-,N/A,,Overcast,60,2012-10-06 22:35:00
6:15 PM,44.6,30.2,57,30.26,10.0,East,10.4,-,N/A,,Overcast,80,2012-10-06 23:15:00
6:35 PM,44.6,30.2,57,30.27,10.0,ENE,8.1,-,N/A,,Overcast,70,2012-10-06 23:35:00
6:55 PM,44.6,30.2,57,30.27,10.0,East,9.2,-,N/A,,Overcast,80,2012-10-06 23:55:00
7:15 PM,44.6,32.0,61,30.28,10.0,ENE,8.1,-,N/A,,Overcast,60,2012-10-07 00:15:00
7:35 PM,44.6,32.0,61,30.29,10.0,ENE,9.2,-,N/A,,Overcast,60,2012-10-07 00:35:00
7:55 PM,44.6,32.0,61,30.30,10.0,ENE,9.2,-,N/A,,Overcast,60,2012-10-07 00:55:00
8:15 PM,42.8,32.0,66,30.31,10.0,ENE,10.4,-,N/A,,Overcast,70,2012-10-07 01:15:00
8:35 PM,42.8,32.0,66,30.32,10.0,ENE,9.2,-,N/A,,Overcast,60,2012-10-07 01:35:00
8:55 PM,42.8,32.0,66,30.33,10.0,ENE,8.1,-,N/A,,Overcast,60,2012-10-07 01:55:00
9:15 PM,42.8,32.0,66,30.33,10.0,NE,5.8,-,N/A,,Overcast,50,2012-10-07 02:15:00
9:35 PM,42.8,32.0,66,30.34,10.0,NE,5.8,-,N/A,,Overcast,50,2012-10-07 02:35:00
9:55 PM,42.8,32.0,66,30.34,10.0,NE,6.9,-,N/A,,Overcast,50,2012-10-07 02:55:00
10:15 PM,42.8,32.0,66,30.34,10.0,ENE,5.8,-,N/A,,Overcast,70,2012-10-07 03:15:00
10:35 PM,42.8,32.0,66,30.35,10.0,ENE,6.9,-,N/A,,Overcast,60,2012-10-07 03:35:00
11:15 PM,42.8,32.0,66,30.35,10.0,ENE,3.5,-,N/A,,Overcast,70,2012-10-07 04:15:00
11:35 PM,42.8,33.8,70,30.35,10.0,East,4.6,-,N/A,,Overcast,80,2012-10-07 04:35:00
11:55 PM,42.8,33.8,70,30.35,10.0,ENE,3.5,-,N/A,,Overcast,60,2012-10-07 04:55:00